12P/Pons-Brooks (2024)

Japanese version
Home page
Updated on May 13, 2023

---------------------------------------------------------------------

* Profile

* Pictures

* Orbital Elements

Epoch 2023 Feb. 25.0 TT = JDT 2460000.5
T 2024 Apr. 21.14308 TT                                 Rudenko
q   0.7811480            (2000.0)            P               Q
n   0.01384050     Peri.  198.98210     +0.14531135     -0.32941593
a  17.1804658      Node   255.84420     +0.98562286     +0.13036086
e   0.9545328      Incl.   74.18623     +0.08621017     -0.93514234
P  71.2
>From 106 observations 2020 June 10-2023 Feb. 27, mean residual 0".7.

* Finding Charts

* Magnitudes Graph

        H = 12.5  G = 0.15               [    ,-840]  (             - 2022 Jan.  2)
        m1 = 5.0 + 5 log d + 13.5 log r  [-840,    ]  (2022 Jan.  2 -             )

---------------------------------------------------------------------

The orbital elements are published on M.P.E.C. 2023-D72.
The charts are made with StellaNavigator Ver.10 (AstroArts).
The magnitudes graphs are made with Comet for Windows.

---------------------------------------------------------------------

Copyright(C) Seiichi Yoshida (comet@aerith.net). All rights reserved.